This is the latest recevied weather packets stored in our database for station/object N1ICS-1. If no packets are shown the sender has not sent any weather packets the latest 10 day(s).
| Time | Temp. | Humidity | Pressure | Rain* | Wind** | Luminosity | Snow |
|---|---|---|---|---|---|---|---|
| 1777985102 | 15° C | 88% | 1007.5 hPa | 0 mm | - | 272 W/m² | - |
| 1777984801 | 15° C | 87% | 1007.8 hPa | 0 mm | - | 266 W/m² | - |
| 1777984502 | 15° C | 89% | 1007.8 hPa | 0 mm | - | 259 W/m² | - |
| 1777984202 | 15° C | 89% | 1007.8 hPa | 0 mm | - | 231 W/m² | - |
| 1777983902 | 14.44° C | 89% | 1007.9 hPa | 0 mm | - | 226 W/m² | - |
| 1777983601 | 14.44° C | 90% | 1008.1 hPa | 0 mm | - | 215 W/m² | - |
| 1777983301 | 14.44° C | 90% | 1008.2 hPa | 0 mm | - | 197 W/m² | - |
| 1777983002 | 14.44° C | 90% | 1008.1 hPa | 0 mm | - | 196 W/m² | - |
| 1777982702 | 14.44° C | 90% | 1008.2 hPa | 0 mm | - | 176 W/m² | - |
| 1777982403 | 13.89° C | 90% | 1008.2 hPa | 0 mm | - | 172 W/m² | - |
| 1777982101 | 13.89° C | 91% | 1008.1 hPa | 0 mm | - | 159 W/m² | - |
| 1777981802 | 13.33° C | 92% | 1008.1 hPa | 0 mm | - | 97 W/m² | - |
| 1777981501 | 13.33° C | 92% | 1008.1 hPa | 0 mm | - | 55 W/m² | - |
| 1777981202 | 13.33° C | 92% | 1007.8 hPa | 0 mm | - | 46 W/m² | - |
| 1777980902 | 13.33° C | 92% | 1007.9 hPa | 0 mm | - | 59 W/m² | - |
| 1777980602 | 12.78° C | 92% | 1007.8 hPa | 0 mm | - | 63 W/m² | - |
| 1777980302 | 12.78° C | 92% | 1007.7 hPa | 0 mm | - | 58 W/m² | - |
| 1777980001 | 12.78° C | 92% | 1007.4 hPa | 0 mm | - | 46 W/m² | - |
| 1777979702 | 12.78° C | 92% | 1007.5 hPa | 0 mm | - | 34 W/m² | - |
| 1777979403 | 12.78° C | 92% | 1007.2 hPa | 0 mm | - | 24 W/m² | - |
| 1777979102 | 12.78° C | 92% | 1007 hPa | 0 mm | - | 25 W/m² | - |
| 1777978802 | 12.78° C | 91% | 1007 hPa | 0 mm | - | 23 W/m² | - |
| 1777978502 | 13.33° C | 91% | 1006.8 hPa | 0 mm | - | 16 W/m² | - |
| 1777978202 | 13.33° C | 91% | 1006.8 hPa | 0 mm | - | 9 W/m² | - |
| 1777977902 | 13.33° C | 90% | 1006.5 hPa | 0 mm | - | 6 W/m² | - |
* Rain latest hour (hover to see other rain measurements)
** Current wind speed in m/s (hover to see current wind gust speed)